| time (UTC) | temp F | wind direction | speed MPH | gust MPH | rain 1hr in | rain 24hr in | rain mn in | humidity % | barometer mb |
| 20260903065021 | 71 | 209 | 5.0 | 10.0 | 0.03 | 0.34 | 0.06 | 87 | 1013.4 |
| 20260903064534 | 71 | 234 | 6.0 | 15.0 | 0.02 | 0.33 | 0.05 | 87 | 1013.0 |
| 20260903064014 | 71 | 222 | 3.0 | 16.0 | 0.02 | 0.33 | 0.05 | 87 | 1012.9 |
| 20260903063516 | 71 | 262 | 7.0 | 16.0 | 0.02 | 0.33 | 0.05 | 89 | 1012.8 |
| 20260903063033 | 71 | 243 | 8.0 | 16.0 | 0.02 | 0.33 | 0.05 | 91 | 1013.3 |
| 20260903062518 | 71 | 240 | 3.0 | 6.0 | 0.00 | 0.31 | 0.03 | 92 | 1013.6 |
| 20260903062016 | 71 | 265 | 2.0 | 4.0 | 0.00 | 0.31 | 0.03 | 91 | 1013.3 |
| 20260903061518 | 71 | 213 | 0.0 | 2.0 | 0.00 | 0.31 | 0.03 | 91 | 1013.2 |
| 20260903061015 | 71 | 188 | 1.0 | 2.0 | 0.00 | 0.31 | 0.03 | 91 | 1013.0 |
| 20260903060511 | 71 | 51 | 0.0 | 2.0 | 0.01 | 0.31 | 0.03 | 91 | 1012.9 |
| 20260903060025 | 71 | 51 | 0.0 | 1.0 | 0.01 | 0.31 | 0.03 | 91 | 1013.1 |
| 20260903055516 | 71 | 51 | 0.0 | 2.0 | 0.02 | 0.31 | 0.03 | 91 | 1013.1 |
| 20260903055017 | 71 | 51 | 1.0 | 2.0 | 0.03 | 0.31 | 0.03 | 91 | 1013.2 |
| 20260903054507 | 71 | 55 | 0.0 | 2.0 | 0.03 | 0.31 | 0.03 | 91 | 1013.3 |
| 20260903054009 | 71 | 66 | 0.0 | 2.0 | 0.03 | 0.31 | 0.03 | 91 | 1013.3 |
| 20260903053509 | 71 | 66 | 1.0 | 2.0 | 0.03 | 0.31 | 0.03 | 90 | 1013.2 |
| 20260903053017 | 71 | 97 | 0.0 | 3.0 | 0.03 | 0.31 | 0.03 | 90 | 1013.3 |
| 20260903052517 | 71 | 19 | 0.0 | 3.0 | 0.03 | 0.31 | 0.03 | 90 | 1013.2 |
| 20260903052013 | 71 | 244 | 1.0 | 3.0 | 0.03 | 0.31 | 0.03 | 90 | 1013.3 |
| 20260903051528 | 71 | 244 | 1.0 | 4.0 | 0.03 | 0.31 | 0.03 | 90 | 1013.4 |
| 20260903051015 | 71 | 233 | 0.0 | 4.0 | 0.03 | 0.31 | 0.03 | 89 | 1013.3 |
| 20260903050506 | 71 | 228 | 3.0 | 4.0 | 0.02 | 0.30 | 0.02 | 89 | 1013.5 |
| 20260903050017 | 71 | 236 | 0.0 | 2.0 | 0.02 | 0.30 | 0.02 | 88 | 1013.3 |
| 20260903045508 | 71 | 234 | 1.0 | 5.0 | 0.01 | 0.29 | 0.01 | 88 | 1013.4 |
| 20260903045016 | 71 | 227 | 3.0 | 7.0 | 0.00 | 0.28 | 0.00 | 89 | 1013.6 |
| 20260903044528 | 71 | 234 | 3.0 | 7.0 | 0.00 | 0.28 | 0.00 | 89 | 1013.7 |
| 20260903044017 | 71 | 203 | 0.0 | 3.0 | 0.00 | 0.28 | 0.00 | 89 | 1013.5 |
| 20260903043517 | 71 | 193 | 1.0 | 3.0 | 0.00 | 0.28 | 0.00 | 88 | 1013.4 |
| 20260903043030 | 71 | 227 | 1.0 | 4.0 | 0.02 | 0.28 | 0.00 | 88 | 1013.5 |
| 20260903042504 | 72 | 250 | 1.0 | 4.0 | 0.16 | 0.28 | 0.00 | 88 | 1013.3 |
| 20260903042007 | 72 | 261 | 2.0 | 7.0 | 0.26 | 0.28 | 0.00 | 88 | 1013.1 |
| 20260903041512 | 72 | 292 | 1.0 | 7.0 | 0.27 | 0.28 | 0.00 | 88 | 1012.9 |
| 20260903041015 | 72 | 239 | 3.0 | 7.0 | 0.27 | 0.28 | 0.00 | 88 | 1013.4 |
| 20260903040514 | 72 | 234 | 3.0 | 8.0 | 0.27 | 0.28 | 0.00 | 88 | 1013.5 |
| 20260903040031 | 73 | 150 | 4.0 | 8.0 | 0.28 | 0.28 | 0.00 | 88 | 1013.3 |
| 20260903035518 | 73 | 182 | 4.0 | 8.0 | 0.28 | 0.28 | 0.28 | 88 | 1013.4 |
| 20260903035015 | 73 | 175 | 4.0 | 6.0 | 0.28 | 0.28 | 0.28 | 87 | 1013.8 |
| 20260903034507 | 74 | 172 | 2.0 | 7.0 | 0.28 | 0.28 | 0.28 | 87 | 1013.6 |
| 20260903034008 | 74 | 186 | 1.0 | 7.0 | 0.28 | 0.28 | 0.28 | 88 | 1013.5 |
| 20260903033512 | 74 | 196 | 2.0 | 7.0 | 0.28 | 0.28 | 0.28 | 87 | 1013.7 |
| 20260903033028 | 75 | 166 | 4.0 | 11.0 | 0.26 | 0.26 | 0.26 | 87 | 1013.6 |
| 20260903032515 | 75 | 253 | 5.0 | 14.0 | 0.12 | 0.12 | 0.12 | 86 | 1014.3 |
| 20260903032015 | 75 | 241 | 5.0 | 13.0 | 0.02 | 0.02 | 0.02 | 83 | 1013.5 |
| 20260903031539 | 76 | 201 | 5.0 | 7.0 | 0.01 | 0.01 | 0.01 | 82 | 1013.5 |
| 20260903031021 | 76 | 174 | 1.0 | 6.0 | 0.01 | 0.01 | 0.01 | 81 | 1012.8 |
| 20260903030508 | 76 | 196 | 3.0 | 6.0 | 0.01 | 0.01 | 0.01 | 80 | 1013.3 |
| 20260903030020 | 77 | 188 | 3.0 | 5.0 | 0.00 | 0.00 | 0.00 | 78 | 1013.1 |
| 20260903025512 | 77 | 82 | 0.0 | 3.0 | 0.00 | 0.00 | 0.00 | 77 | 1012.1 |
| 20260903025011 | 77 | 72 | 1.0 | 3.0 | 0.00 | 0.00 | 0.00 | 77 | 1012.0 |
| 20260903024525 | 77 | 53 | 0.0 | 4.0 | 0.00 | 0.00 | 0.00 | 76 | 1011.8 |
| 20260903024016 | 77 | 49 | 1.0 | 4.0 | 0.00 | 0.00 | 0.00 | 76 | 1011.3 |
| 20260903023518 | 77 | 76 | 1.0 | 6.0 | 0.00 | 0.00 | 0.00 | 76 | 1011.5 |
| 20260903023034 | 77 | 67 | 1.0 | 10.0 | 0.00 | 0.00 | 0.00 | 76 | 1012.2 |
| 20260903022504 | 77 | 60 | 2.0 | 10.0 | 0.00 | 0.00 | 0.00 | 76 | 1012.0 |
| 20260903022013 | 78 | 44 | 4.0 | 11.0 | 0.00 | 0.00 | 0.00 | 75 | 1012.1 |
| 20260903021516 | 78 | 57 | 6.0 | 11.0 | 0.00 | 0.00 | 0.00 | 74 | 1012.5 |
| 20260903021012 | 79 | 37 | 7.0 | 11.0 | 0.00 | 0.00 | 0.00 | 74 | 1012.8 |
| 20260903020518 | 79 | 32 | 7.0 | 11.0 | 0.00 | 0.00 | 0.00 | 73 | 1012.9 |
| 20260903020035 | 80 | 352 | 3.0 | 7.0 | 0.00 | 0.00 | 0.00 | 73 | 1013.0 |
| 20260903015516 | 80 | 67 | 2.0 | 8.0 | 0.00 | 0.00 | 0.00 | 72 | 1012.7 |
| 20260903015018 | 81 | 31 | 3.0 | 8.0 | 0.00 | 0.00 | 0.00 | 71 | 1012.4 |
| 20260903014513 | 82 | 64 | 2.0 | 12.0 | 0.00 | 0.00 | 0.00 | 71 | 1012.5 |
| 20260903014007 | 83 | 32 | 4.0 | 12.0 | 0.00 | 0.00 | 0.00 | 70 | 1012.3 |
| 20260903013518 | 83 | 19 | 3.0 | 4.0 | 0.00 | 0.00 | 0.00 | 68 | 1012.2 |
| 20260903013028 | 84 | 347 | 1.0 | 4.0 | 0.00 | 0.00 | 0.00 | 67 | 1012.1 |
| 20260903012516 | 84 | 360 | 2.0 | 3.0 | 0.00 | 0.00 | 0.00 | 66 | 1012.1 |
| 20260903012014 | 85 | 298 | 1.0 | 3.0 | 0.00 | 0.00 | 0.00 | 66 | 1012.1 |
| 20260903011543 | 85 | 330 | 1.0 | 5.0 | 0.00 | 0.00 | 0.00 | 65 | 1012.1 |
| 20260903011018 | 86 | 12 | 2.0 | 6.0 | 0.00 | 0.00 | 0.00 | 63 | 1012.0 |
| 20260903010507 | 87 | 13 | 3.0 | 6.0 | 0.00 | 0.00 | 0.00 | 62 | 1011.9 |
| 20260903010020 | 88 | 9 | 2.0 | 4.0 | 0.00 | 0.00 | 0.00 | 60 | 1011.8 |
| 20260903005513 | 89 | 344 | 1.0 | 3.0 | 0.00 | 0.00 | 0.00 | 58 | 1011.6 |
| 20260903005015 | 89 | 319 | 1.0 | 7.0 | 0.00 | 0.00 | 0.00 | 58 | 1011.7 |
| 20260903004531 | 90 | 296 | 1.0 | 8.0 | 0.00 | 0.00 | 0.00 | 54 | 1011.6 |
| 20260903004018 | 90 | 248 | 2.0 | 9.0 | 0.00 | 0.00 | 0.00 | 54 | 1011.7 |
| 20260903003514 | 90 | 261 | 4.0 | 9.0 | 0.00 | 0.00 | 0.00 | 53 | 1011.6 |
| 20260903003031 | 90 | 252 | 5.0 | 9.0 | 0.00 | 0.00 | 0.00 | 53 | 1011.6 |
| 20260903002512 | 90 | 273 | 4.0 | 8.0 | 0.00 | 0.00 | 0.00 | 52 | 1011.5 |
| 20260903002008 | 90 | 265 | 4.0 | 9.0 | 0.00 | 0.00 | 0.00 | 52 | 1011.3 |
| 20260903001523 | 90 | 250 | 4.0 | 9.0 | 0.00 | 0.00 | 0.00 | 52 | 1011.3 |
| 20260903001015 | 91 | 261 | 3.0 | 8.0 | 0.00 | 0.00 | 0.00 | 52 | 1011.3 |
| 20260903000516 | 91 | 254 | 3.0 | 9.0 | 0.00 | 0.00 | 0.00 | 51 | 1011.3 |
| 20260903000041 | 91 | 262 | 5.0 | 9.0 | 0.00 | 0.00 | 0.00 | 51 | 1011.2 |
| 20260902235518 | 91 | 239 | 5.0 | 9.0 | 0.00 | 0.00 | 0.00 | 51 | 1011.3 |
| 20260902235021 | 91 | 250 | 2.0 | 10.0 | 0.00 | 0.00 | 0.00 | 51 | 1011.4 |
| 20260902234517 | 91 | 273 | 4.0 | 10.0 | 0.00 | 0.00 | 0.00 | 51 | 1011.5 |
| 20260902234011 | 91 | 257 | 5.0 | 13.0 | 0.00 | 0.00 | 0.00 | 50 | 1011.6 |
| 20260902233512 | 91 | 206 | 5.0 | 13.0 | 0.00 | 0.00 | 0.00 | 50 | 1011.6 |
| 20260902233043 | 92 | 223 | 6.0 | 12.0 | 0.00 | 0.00 | 0.00 | 50 | 1011.7 |
| 20260902232515 | 92 | 242 | 4.0 | 12.0 | 0.00 | 0.00 | 0.00 | 50 | 1011.8 |
| 20260902232016 | 92 | 251 | 4.0 | 11.0 | 0.00 | 0.00 | 0.00 | 50 | 1011.8 |
| 20260902231534 | 92 | 277 | 2.0 | 7.0 | 0.00 | 0.00 | 0.00 | 50 | 1011.6 |
| 20260902231018 | 92 | 248 | 2.0 | 9.0 | 0.00 | 0.00 | 0.00 | 50 | 1011.7 |
| 20260902230513 | 92 | 264 | 4.0 | 13.0 | 0.00 | 0.00 | 0.00 | 49 | 1011.8 |
| 20260902230017 | 92 | 265 | 5.0 | 13.0 | 0.00 | 0.00 | 0.00 | 48 | 1011.7 |
| 20260902225512 | 92 | 257 | 7.0 | 17.0 | 0.00 | 0.00 | 0.00 | 48 | 1011.5 |
| 20260902225016 | 93 | 248 | 8.0 | 18.0 | 0.00 | 0.00 | 0.00 | 48 | 1011.5 |
| 20260902224529 | 93 | 242 | 10.0 | 19.0 | 0.00 | 0.00 | 0.00 | 47 | 1011.3 |
| 20260902224015 | 93 | 248 | 7.0 | 19.0 | 0.00 | 0.00 | 0.00 | 47 | 1011.2 |
| 20260902223520 | 93 | 253 | 7.0 | 19.0 | 0.00 | 0.00 | 0.00 | 48 | 1011.1 |
| 20260902223034 | 93 | 237 | 9.0 | 19.0 | 0.00 | 0.00 | 0.00 | 48 | 1011.1 |
| 20260902222510 | 93 | 259 | 7.0 | 18.0 | 0.00 | 0.00 | 0.00 | 49 | 1011.1 |
| 20260902222012 | 93 | 231 | 6.0 | 18.0 | 0.00 | 0.00 | 0.00 | 49 | 1011.1 |
| 20260902221524 | 94 | 300 | 8.0 | 15.0 | 0.00 | 0.00 | 0.00 | 48 | 1011.0 |
| 20260902221015 | 94 | 240 | 7.0 | 15.0 | 0.00 | 0.00 | 0.00 | 47 | 1011.0 |
| 20260902220518 | 94 | 223 | 4.0 | 16.0 | 0.00 | 0.00 | 0.00 | 47 | 1011.0 |
| 20260902220042 | 95 | 257 | 6.0 | 16.0 | 0.00 | 0.00 | 0.00 | 46 | 1010.9 |
| 20260902215515 | 95 | 248 | 6.0 | 15.0 | 0.00 | 0.00 | 0.00 | 46 | 1011.0 |
| 20260902215020 | 95 | 21 | 9.0 | 17.0 | 0.00 | 0.00 | 0.00 | 46 | 1011.1 |
| 20260902214533 | 95 | 191 | 7.0 | 17.0 | 0.00 | 0.00 | 0.00 | 46 | 1011.2 |
| 20260902214014 | 95 | 269 | 7.0 | 19.0 | 0.00 | 0.00 | 0.00 | 45 | 1011.2 |
| 20260902213514 | 95 | 259 | 9.0 | 22.0 | 0.00 | 0.00 | 0.00 | 45 | 1011.3 |
| 20260902213030 | 95 | 281 | 12.0 | 22.0 | 0.00 | 0.00 | 0.00 | 43 | 1011.3 |
| 20260902212516 | 95 | 284 | 6.0 | 16.0 | 0.00 | 0.00 | 0.00 | 46 | 1011.3 |
| 20260902212018 | 96 | 315 | 8.0 | 16.0 | 0.00 | 0.00 | 0.00 | 45 | 1011.3 |
| 20260902211535 | 96 | 260 | 7.0 | 20.0 | 0.00 | 0.00 | 0.00 | 46 | 1011.2 |
| 20260902211021 | 96 | 240 | 6.0 | 25.0 | 0.00 | 0.00 | 0.00 | 46 | 1011.2 |
| 20260902210512 | 96 | 249 | 12.0 | 25.0 | 0.00 | 0.00 | 0.00 | 44 | 1011.1 |
| 20260902210025 | 96 | 308 | 7.0 | 15.0 | 0.00 | 0.00 | 0.00 | 44 | 1011.2 |
| 20260902205516 | 96 | 294 | 8.0 | 15.0 | 0.00 | 0.00 | 0.00 | 43 | 1011.1 |
| 20260902205003 | 96 | 254 | 5.0 | 15.0 | 0.00 | 0.00 | 0.00 | 44 | 1011.4 |
| 20260902204504 | 96 | 270 | 8.0 | 15.0 | 0.00 | 0.00 | 0.00 | 43 | 1011.3 |
| 20260902204004 | 96 | 302 | 10.0 | 19.0 | 0.00 | 0.00 | 0.00 | 40 | 1011.4 |
| 20260902203506 | 97 | 254 | 8.0 | 19.0 | 0.00 | 0.00 | 0.00 | 41 | 1011.4 |
| 20260902203015 | 97 | 322 | 9.0 | 18.0 | 0.00 | 0.00 | 0.00 | 40 | 1011.4 |
| 20260902202512 | 97 | 267 | 10.0 | 18.0 | 0.00 | 0.00 | 0.00 | 39 | 1011.4 |
| 20260902202012 | 97 | 267 | 9.0 | 17.0 | 0.00 | 0.00 | 0.00 | 40 | 1011.5 |
| 20260902201536 | 97 | 253 | 7.0 | 15.0 | 0.00 | 0.00 | 0.00 | 41 | 1011.7 |
| 20260902201002 | 97 | 251 | 8.0 | 13.0 | 0.00 | 0.00 | 0.00 | 41 | 1011.7 |
| 20260902200502 | 96 | 289 | 7.0 | 14.0 | 0.00 | 0.00 | 0.00 | 40 | 1011.8 |
| 20260902200006 | 96 | 275 | 6.0 | 18.0 | 0.00 | 0.00 | 0.00 | 40 | 1011.7 |
| 20260902195506 | 96 | 266 | 10.0 | 18.0 | 0.00 | 0.00 | 0.00 | 38 | 1011.8 |
| 20260902195007 | 97 | 269 | 9.0 | 18.0 | 0.00 | 0.00 | 0.00 | 38 | 1011.9 |
| 20260902194517 | 98 | 304 | 7.0 | 18.0 | 0.00 | 0.00 | 0.00 | 38 | 1011.9 |
| 20260902194015 | 98 | 248 | 6.0 | 17.0 | 0.00 | 0.00 | 0.00 | 40 | 1012.0 |
| 20260902193512 | 97 | 283 | 10.0 | 17.0 | 0.00 | 0.00 | 0.00 | 39 | 1012.1 |
| 20260902193005 | 98 | 232 | 9.0 | 17.0 | 0.00 | 0.00 | 0.00 | 38 | 1012.0 |
| 20260902192503 | 97 | 273 | 7.0 | 14.0 | 0.00 | 0.00 | 0.00 | 42 | 1012.2 |
| 20260902192007 | 97 | 307 | 5.0 | 14.0 | 0.00 | 0.00 | 0.00 | 42 | 1012.2 |
| 20260902191517 | 97 | 250 | 7.0 | 14.0 | 0.00 | 0.00 | 0.00 | 41 | 1012.3 |
| 20260902191009 | 97 | 240 | 6.0 | 14.0 | 0.00 | 0.00 | 0.00 | 43 | 1012.3 |
| 20260902190514 | 96 | 279 | 8.0 | 16.0 | 0.00 | 0.00 | 0.00 | 43 | 1012.3 |
| 20260902190027 | 96 | 282 | 9.0 | 16.0 | 0.00 | 0.00 | 0.00 | 41 | 1012.3 |
| 20260902185516 | 96 | 318 | 8.0 | 18.0 | 0.00 | 0.00 | 0.00 | 42 | 1012.3 |
| 20260902185006 | 96 | 241 | 10.0 | 18.0 | 0.00 | 0.00 | 0.00 | 41 | 1012.3 |
| 20260902184513 | 96 | 257 | 10.0 | 18.0 | 0.00 | 0.00 | 0.00 | 42 | 1012.3 |
| 20260902184010 | 96 | 244 | 6.0 | 16.0 | 0.00 | 0.00 | 0.00 | 45 | 1012.2 |
| 20260902183507 | 96 | 246 | 4.0 | 10.0 | 0.00 | 0.00 | 0.00 | 47 | 1012.2 |
| 20260902183018 | 96 | 279 | 3.0 | 14.0 | 0.00 | 0.00 | 0.00 | 47 | 1012.2 |
| 20260902182511 | 95 | 285 | 6.0 | 14.0 | 0.00 | 0.00 | 0.00 | 45 | 1012.3 |
| 20260902182012 | 96 | 271 | 8.0 | 18.0 | 0.00 | 0.00 | 0.00 | 46 | 1012.4 |
| 20260902181525 | 95 | 270 | 8.0 | 18.0 | 0.00 | 0.00 | 0.00 | 46 | 1012.7 |
| 20260902181004 | 95 | 266 | 5.0 | 15.0 | 0.00 | 0.00 | 0.00 | 47 | 1012.8 |
| 20260902180508 | 95 | 235 | 7.0 | 15.0 | 0.00 | 0.00 | 0.00 | 48 | 1012.9 |
| 20260902180010 | 95 | 263 | 5.0 | 14.0 | 0.00 | 0.00 | 0.00 | 48 | 1013.0 |
| 20260902175510 | 95 | 221 | 7.0 | 15.0 | 0.00 | 0.00 | 0.00 | 47 | 1013.1 |
| 20260902175015 | 95 | 261 | 8.0 | 15.0 | 0.00 | 0.00 | 0.00 | 49 | 1013.2 |
| 20260902174522 | 94 | 259 | 7.0 | 12.0 | 0.00 | 0.00 | 0.00 | 52 | 1013.2 |
| 20260902174013 | 94 | 257 | 7.0 | 12.0 | 0.00 | 0.00 | 0.00 | 51 | 1013.1 |
| 20260902173518 | 93 | 213 | 5.0 | 12.0 | 0.00 | 0.00 | 0.00 | 53 | 1013.3 |
| 20260902173011 | 93 | 237 | 5.0 | 10.0 | 0.00 | 0.00 | 0.00 | 53 | 1013.4 |
| 20260902172511 | 92 | 260 | 5.0 | 10.0 | 0.00 | 0.00 | 0.00 | 55 | 1013.6 |
| 20260902172009 | 92 | 248 | 4.0 | 11.0 | 0.00 | 0.00 | 0.00 | 54 | 1013.7 |
| 20260902171515 | 92 | 302 | 6.0 | 12.0 | 0.00 | 0.00 | 0.00 | 53 | 1013.7 |
| 20260902171014 | 92 | 317 | 7.0 | 12.0 | 0.00 | 0.00 | 0.00 | 52 | 1013.9 |
| 20260902170512 | 92 | 253 | 5.0 | 14.0 | 0.00 | 0.00 | 0.00 | 52 | 1013.8 |
| 20260902170028 | 93 | 253 | 7.0 | 16.0 | 0.00 | 0.00 | 0.00 | 51 | 1013.9 |
| 20260902165522 | 93 | 338 | 5.0 | 16.0 | 0.00 | 0.00 | 0.00 | 50 | 1014.0 |
| 20260902165005 | 94 | 309 | 5.0 | 14.0 | 0.00 | 0.00 | 0.00 | 51 | 1013.9 |
| 20260902164508 | 94 | 327 | 4.0 | 11.0 | 0.00 | 0.00 | 0.00 | 50 | 1013.8 |
| 20260902164005 | 94 | 253 | 6.0 | 12.0 | 0.00 | 0.00 | 0.00 | 51 | 1013.8 |
| 20260902163511 | 93 | 259 | 7.0 | 12.0 | 0.00 | 0.00 | 0.00 | 50 | 1013.8 |
| 20260902163018 | 93 | 240 | 8.0 | 12.0 | 0.00 | 0.00 | 0.00 | 51 | 1013.8 |
| 20260902162514 | 93 | 254 | 5.0 | 11.0 | 0.00 | 0.00 | 0.00 | 51 | 1013.7 |
| 20260902162016 | 93 | 240 | 6.0 | 12.0 | 0.00 | 0.00 | 0.00 | 51 | 1013.8 |
| 20260902161531 | 93 | 236 | 8.0 | 12.0 | 0.00 | 0.00 | 0.00 | 51 | 1013.9 |
| 20260902161007 | 93 | 222 | 7.0 | 13.0 | 0.00 | 0.00 | 0.00 | 52 | 1014.0 |
| 20260902160506 | 92 | 264 | 8.0 | 13.0 | 0.00 | 0.00 | 0.00 | 53 | 1013.9 |
| 20260902160013 | 92 | 233 | 5.0 | 12.0 | 0.00 | 0.00 | 0.00 | 55 | 1013.9 |
| 20260902155515 | 92 | 254 | 4.0 | 12.0 | 0.00 | 0.00 | 0.00 | 55 | 1014.0 |
| 20260902155014 | 91 | 213 | 3.0 | 9.0 | 0.00 | 0.00 | 0.00 | 56 | 1013.9 |
| 20260902154538 | 91 | 279 | 3.0 | 12.0 | 0.00 | 0.00 | 0.00 | 56 | 1014.1 |
| 20260902154017 | 91 | 323 | 5.0 | 14.0 | 0.00 | 0.00 | 0.00 | 57 | 1014.0 |
| 20260902153517 | 90 | 251 | 4.0 | 14.0 | 0.00 | 0.00 | 0.00 | 57 | 1014.0 |
| 20260902153006 | 90 | 238 | 5.0 | 13.0 | 0.00 | 0.00 | 0.00 | 58 | 1014.0 |
| 20260902152506 | 90 | 245 | 7.0 | 13.0 | 0.00 | 0.00 | 0.00 | 59 | 1014.0 |
| 20260902152007 | 89 | 228 | 8.0 | 12.0 | 0.00 | 0.00 | 0.00 | 61 | 1014.0 |
| 20260902151517 | 89 | 228 | 4.0 | 9.0 | 0.00 | 0.00 | 0.00 | 65 | 1014.1 |
| 20260902151014 | 88 | 259 | 4.0 | 8.0 | 0.00 | 0.00 | 0.00 | 64 | 1014.0 |
| 20260902150516 | 88 | 261 | 4.0 | 8.0 | 0.00 | 0.00 | 0.00 | 66 | 1014.1 |
| 20260902150029 | 87 | 248 | 5.0 | 9.0 | 0.00 | 0.00 | 0.00 | 66 | 1014.1 |
| 20260902145517 | 87 | 246 | 5.0 | 9.0 | 0.00 | 0.00 | 0.00 | 68 | 1014.1 |
| 20260902145003 | 86 | 263 | 4.0 | 7.0 | 0.00 | 0.00 | 0.00 | 69 | 1014.1 |
| 20260902144511 | 86 | 261 | 3.0 | 8.0 | 0.00 | 0.00 | 0.00 | 70 | 1014.1 |
| 20260902144009 | 86 | 248 | 4.0 | 8.0 | 0.00 | 0.00 | 0.00 | 71 | 1014.0 |
| 20260902143510 | 85 | 292 | 4.0 | 8.0 | 0.00 | 0.00 | 0.00 | 72 | 1014.0 |
| 20260902143024 | 85 | 180 | 3.0 | 7.0 | 0.00 | 0.00 | 0.00 | 73 | 1014.0 |
| 20260902142520 | 84 | 252 | 3.0 | 6.0 | 0.00 | 0.00 | 0.00 | 74 | 1014.0 |
| 20260902142018 | 84 | 238 | 2.0 | 6.0 | 0.00 | 0.00 | 0.00 | 75 | 1014.1 |
| 20260902141529 | 84 | 254 | 1.0 | 6.0 | 0.00 | 0.00 | 0.00 | 76 | 1014.1 |
| 20260902141003 | 83 | 270 | 3.0 | 6.0 | 0.00 | 0.00 | 0.00 | 1014.1 | |
| 20260902140507 | 83 | 244 | 2.0 | 7.0 | 0.00 | 0.00 | 0.00 | 77 | 1014.1 |
| 20260902140013 | 83 | 216 | 3.0 | 9.0 | 0.00 | 0.00 | 0.00 | 77 | 1014.1 |
| 20260902135511 | 83 | 232 | 5.0 | 9.0 | 0.00 | 0.00 | 0.00 | 77 | 1014.1 |
| 20260902135011 | 83 | 247 | 3.0 | 9.0 | 0.00 | 0.00 | 0.00 | 78 | 1014.3 |
| 20260902134526 | 82 | 238 | 4.0 | 9.0 | 0.00 | 0.00 | 0.00 | 79 | 1014.2 |
| 20260902134013 | 82 | 290 | 4.0 | 9.0 | 0.00 | 0.00 | 0.00 | 79 | 1014.3 |
| 20260902133521 | 82 | 250 | 3.0 | 8.0 | 0.00 | 0.00 | 0.00 | 80 | 1014.2 |
| 20260902133008 | 81 | 221 | 3.0 | 8.0 | 0.00 | 0.00 | 0.00 | 81 | 1014.1 |
| 20260902132511 | 81 | 216 | 3.0 | 7.0 | 0.00 | 0.00 | 0.00 | 81 | 1014.2 |
| 20260902132011 | 81 | 225 | 2.0 | 5.0 | 0.00 | 0.00 | 0.00 | 81 | 1014.2 |
| 20260902131519 | 80 | 243 | 3.0 | 5.0 | 0.00 | 0.00 | 0.00 | 82 | 1014.1 |
| 20260902131020 | 80 | 252 | 3.0 | 4.0 | 0.00 | 0.00 | 0.00 | 82 | 1014.1 |
| 20260902130516 | 80 | 267 | 1.0 | 8.0 | 0.00 | 0.00 | 0.00 | 83 | 1014.1 |
| 20260902130029 | 79 | 250 | 3.0 | 8.0 | 0.00 | 0.00 | 0.00 | 82 | 1014.1 |
| 20260902125519 | 79 | 249 | 3.0 | 6.0 | 0.00 | 0.00 | 0.00 | 83 | 1014.1 |
| 20260902125007 | 79 | 267 | 3.0 | 6.0 | 0.00 | 0.00 | 0.00 | 84 | 1014.2 |
| 20260902124514 | 78 | 258 | 2.0 | 5.0 | 0.00 | 0.00 | 0.00 | 84 | 1014.0 |
| 20260902124008 | 78 | 300 | 2.0 | 6.0 | 0.00 | 0.00 | 0.00 | 84 | 1014.0 |
| 20260902123512 | 78 | 290 | 2.0 | 7.0 | 0.00 | 0.00 | 0.00 | 85 | 1014.0 |
| 20260902123029 | 78 | 234 | 3.0 | 9.0 | 0.00 | 0.00 | 0.00 | 85 | 1013.9 |
| 20260902122516 | 77 | 229 | 2.0 | 9.0 | 0.00 | 0.00 | 0.00 | 85 | 1014.0 |
| 20260902122015 | 77 | 247 | 3.0 | 8.0 | 0.00 | 0.00 | 0.00 | 86 | 1014.0 |
| 20260902121534 | 77 | 235 | 3.0 | 6.0 | 0.00 | 0.00 | 0.00 | 86 | 1014.1 |
| 20260902121007 | 77 | 251 | 3.0 | 9.0 | 0.00 | 0.00 | 0.00 | 86 | 1014.1 |
| 20260902120509 | 76 | 253 | 4.0 | 9.0 | 0.00 | 0.00 | 0.00 | 86 | 1014.2 |
| 20260902120022 | 76 | 221 | 3.0 | 7.0 | 0.00 | 0.00 | 0.00 | 87 | 1014.0 |
| 20260902115515 | 76 | 233 | 3.0 | 7.0 | 0.00 | 0.00 | 0.00 | 87 | 1013.9 |
| 20260902115022 | 76 | 267 | 3.0 | 5.0 | 0.00 | 0.00 | 0.00 | 87 | 1013.9 |
| 20260902114540 | 76 | 226 | 3.0 | 5.0 | 0.00 | 0.00 | 0.00 | 87 | 1013.9 |
| 20260902114019 | 76 | 197 | 2.0 | 5.0 | 0.00 | 0.00 | 0.00 | 87 | 1013.7 |
| 20260902113519 | 76 | 202 | 1.0 | 4.0 | 0.00 | 0.00 | 0.00 | 87 | 1013.8 |
| 20260902113013 | 76 | 209 | 2.0 | 3.0 | 0.00 | 0.00 | 0.00 | 87 | 1013.8 |
| 20260902112510 | 76 | 200 | 1.0 | 3.0 | 0.00 | 0.00 | 0.00 | 87 | 1013.8 |
| 20260902112015 | 76 | 224 | 2.0 | 4.0 | 0.00 | 0.00 | 0.00 | 87 | 1013.9 |
| 20260902111525 | 76 | 247 | 3.0 | 4.0 | 0.00 | 0.00 | 0.00 | 86 | 1014.1 |
| 20260902111013 | 76 | 253 | 1.0 | 5.0 | 0.00 | 0.00 | 0.00 | 86 | 1014.2 |
| 20260902110521 | 76 | 234 | 2.0 | 5.0 | 0.00 | 0.00 | 0.00 | 86 | 1014.2 |
| 20260902110030 | 76 | 263 | 3.0 | 7.0 | 0.00 | 0.00 | 0.00 | 86 | 1014.3 |
| 20260902105521 | 76 | 245 | 2.0 | 9.0 | 0.00 | 0.00 | 0.00 | 86 | 1014.3 |
| 20260902105008 | 76 | 242 | 4.0 | 9.0 | 0.00 | 0.00 | 0.00 | 86 | 1014.3 |
| 20260902104522 | 76 | 241 | 3.0 | 8.0 | 0.00 | 0.00 | 0.00 | 86 | 1014.0 |
| 20260902104010 | 76 | 257 | 3.0 | 9.0 | 0.00 | 0.00 | 0.00 | 85 | 1014.0 |
| 20260902103514 | 77 | 235 | 4.0 | 9.0 | 0.00 | 0.00 | 0.00 | 85 | 1013.9 |
| 20260902103032 | 77 | 226 | 2.0 | 7.0 | 0.00 | 0.00 | 0.00 | 85 | 1013.9 |
| 20260902102521 | 77 | 205 | 2.0 | 7.0 | 0.00 | 0.00 | 0.00 | 85 | 1013.8 |
| 20260902102018 | 77 | 226 | 3.0 | 7.0 | 0.00 | 0.00 | 0.00 | 85 | 1013.8 |
| 20260902101539 | 77 | 248 | 2.0 | 6.0 | 0.00 | 0.00 | 0.00 | 85 | 1013.8 |
| 20260902101007 | 77 | 234 | 2.0 | 4.0 | 0.00 | 0.00 | 0.00 | 85 | 1013.7 |
| 20260902100510 | 77 | 261 | 1.0 | 6.0 | 0.00 | 0.00 | 0.00 | 85 | 1013.6 |
| 20260902100026 | 77 | 201 | 2.0 | 6.0 | 0.00 | 0.00 | 0.00 | 84 | 1013.6 |
| 20260902095515 | 77 | 256 | 3.0 | 6.0 | 0.00 | 0.00 | 0.00 | 84 | 1013.6 |
| 20260902095017 | 77 | 275 | 2.0 | 9.0 | 0.00 | 0.00 | 0.00 | 84 | 1013.5 |
| 20260902094531 | 77 | 283 | 3.0 | 9.0 | 0.00 | 0.00 | 0.00 | 84 | 1013.6 |
| 20260902094023 | 77 | 236 | 3.0 | 7.0 | 0.00 | 0.00 | 0.00 | 84 | 1013.6 |
| 20260902093519 | 77 | 219 | 4.0 | 7.0 | 0.00 | 0.00 | 0.00 | 84 | 1013.7 |
| 20260902093016 | 78 | 234 | 2.0 | 6.0 | 0.00 | 0.00 | 0.00 | 84 | 1013.7 |
| 20260902092511 | 78 | 243 | 3.0 | 6.0 | 0.00 | 0.00 | 0.00 | 84 | 1013.8 |
| 20260902092013 | 78 | 243 | 3.0 | 6.0 | 0.00 | 0.00 | 0.00 | 84 | 1013.8 |
| 20260902091527 | 78 | 261 | 2.0 | 4.0 | 0.00 | 0.00 | 0.00 | 84 | 1013.8 |
| 20260902091024 | 78 | 180 | 2.0 | 4.0 | 0.00 | 0.00 | 0.00 | 84 | 1013.7 |
| 20260902090519 | 78 | 218 | 1.0 | 3.0 | 0.00 | 0.00 | 0.00 | 83 | 1013.6 |
| 20260902090039 | 78 | 240 | 1.0 | 6.0 | 0.00 | 0.00 | 0.00 | 83 | 1013.7 |
| 20260902085508 | 78 | 196 | 2.0 | 6.0 | 0.00 | 0.00 | 0.00 | 83 | 1013.6 |
| 20260902085009 | 78 | 205 | 1.0 | 4.0 | 0.00 | 0.00 | 0.00 | 83 | 1013.5 |
| 20260902084524 | 78 | 213 | 2.0 | 7.0 | 0.00 | 0.00 | 0.00 | 83 | 1013.5 |
| 20260902084017 | 78 | 212 | 2.0 | 7.0 | 0.00 | 0.00 | 0.00 | 83 | 1013.6 |
| 20260902083504 | 78 | 229 | 3.0 | 5.0 | 0.00 | 0.00 | 0.00 | 83 | 1013.6 |
| 20260902083005 | 78 | 244 | 2.0 | 6.0 | 0.00 | 0.00 | 0.00 | 83 | 1013.6 |
| 20260902082503 | 77 | 244 | 3.0 | 6.0 | 0.00 | 0.00 | 0.00 | 83 | 1013.7 |
| 20260902082008 | 77 | 232 | 1.0 | 4.0 | 0.00 | 0.00 | 0.00 | 83 | 1013.6 |
| 20260902081513 | 77 | 211 | 2.0 | 5.0 | 0.00 | 0.00 | 0.00 | 83 | 1013.5 |
| 20260902081008 | 77 | 228 | 1.0 | 5.0 | 0.00 | 0.00 | 0.00 | 83 | 1013.6 |
| 20260902080512 | 78 | 238 | 2.0 | 4.0 | 0.00 | 0.00 | 0.00 | 83 | 1013.6 |
| 20260902080026 | 78 | 254 | 2.0 | 5.0 | 0.00 | 0.00 | 0.00 | 82 | 1013.4 |
| 20260902075503 | 78 | 191 | 2.0 | 5.0 | 0.00 | 0.00 | 0.00 | 82 | 1013.3 |
| 20260902075003 | 78 | 193 | 3.0 | 5.0 | 0.00 | 0.00 | 0.00 | 82 | 1013.3 |
| 20260902074513 | 78 | 186 | 3.0 | 5.0 | 0.00 | 0.00 | 0.00 | 82 | 1013.4 |
| 20260902074006 | 78 | 217 | 3.0 | 5.0 | 0.00 | 0.00 | 0.00 | 82 | 1013.4 |
| 20260902073507 | 78 | 177 | 2.0 | 5.0 | 0.00 | 0.00 | 0.00 | 82 | 1013.4 |
| 20260902073017 | 77 | 186 | 2.0 | 4.0 | 0.00 | 0.00 | 0.00 | 82 | 1013.5 |
| 20260902072514 | 77 | 218 | 2.0 | 4.0 | 0.00 | 0.00 | 0.00 | 82 | 1013.6 |
| 20260902072014 | 77 | 196 | 2.0 | 4.0 | 0.00 | 0.00 | 0.00 | 82 | 1013.5 |
| 20260902071504 | 77 | 232 | 2.0 | 4.0 | 0.00 | 0.00 | 0.00 | 82 | 1013.5 |
| 20260902071004 | 77 | 185 | 2.0 | 4.0 | 0.00 | 0.00 | 0.00 | 82 | 1013.4 |
| 20260902070504 | 77 | 194 | 1.0 | 3.0 | 0.00 | 0.00 | 0.00 | 82 | 1013.5 |
| 20260902070014 | 77 | 219 | 1.0 | 3.0 | 0.00 | 0.00 | 0.00 | 82 | 1013.6 |
| 20260902065509 | 77 | 209 | 1.0 | 3.0 | 0.00 | 0.00 | 0.00 | 82 | 1013.6 |